Regional Weather Roundup
Issued by NWS Little Rock, AR

Home | Current Version | Previous Version | Text Only | Print | Product List | Glossary On
Versions: 1 2 3 4 5 6 7 8 9 10 11 12 13 14 15 16 17 18 19 20 21 22 23 24 25 26 27 28
000
ASUS44 KLZK 031305
RWRLZK

WEATHER ROUNDUP FOR ARKANSAS
NATIONAL WEATHER SERVICE LITTLE ROCK AR
800 AM CDT TUE MAY 03 2016

NOTE: "FAIR" INDICATES FEW OR NO CLOUDS BELOW 12,000 FEET WITH NO
SIGNIFICANT WEATHER AND/OR OBSTRUCTIONS TO VISIBILITY.

ARZ001-003-010-029-031400-
NORTHWEST ARKANSAS

CITY           SKY/WX    TMP DP  RH WIND       PRES   REMARKS
FAYETTEVILLE   FOG       41  41 100 S3        30.10R VSB 1/4
FORT SMITH     FAIR      50  45  83 CALM      30.10R
HARRISON       FAIR      48  46  93 NW7       30.09R
BENTONVILLE    FAIR      46  43  87 CALM      30.11R
ROGERS         FOG       46  45  96 CALM      30.11  VSB 3/4
SILOAM SPGS    FAIR      45  37  76 CALM      30.11R
HIGHFILL       FAIR      49  47  93 CALM      30.10R
SPRINGDALE     MOSUNNY   48  46  93 CALM      30.12R
$$

ARZ004-005-016-031400-
NORTH CENTRAL ARKANSAS

CITY           SKY/WX    TMP DP  RH WIND       PRES   REMARKS
BATESVILLE     CLOUDY    54  48  82 W3        30.07R
FLIPPIN        FAIR     N/A N/A N/A N5        30.05R
MTN HOME       FAIR      51  47  86 CALM      30.06R
$$

ARZ040-041-031400-
WEST CENTRAL ARKANSAS

CITY           SKY/WX    TMP DP  RH WIND       PRES   REMARKS
MENA           FAIR      52  48  87 CALM      30.09R
MOUNT IDA      FAIR      51  47  86 CALM      30.05R
$$

ARZ009-017-025-026-028-031400-
NORTHEAST ARKANSAS

CITY           SKY/WX    TMP DP  RH WIND       PRES   REMARKS
JONESBORO      FAIR      57  50  77 N6        30.03R
NEWPORT        FAIR      57  50  78 NW10      30.06R
WALNUT RIDGE   CLOUDY    55  46  71 N13       30.04R
BLYTHEVILLE    CLOUDY    58  52  80 N12       30.02R
NW BLYTHEVILLE PTSUNNY   57  50  77 N6        30.03
$$

ARZ022-023-033-042-044-031400-
CENTRAL ARKANSAS

CITY           SKY/WX    TMP DP  RH WIND       PRES   REMARKS
LITTLE ROCK    PTSUNNY   58  49  72 NW9       30.07R
N LITTLE ROCK    N/A     55  50  83 N5        30.06R
JACKSONVILLE   MOSUNNY   55  50  82 NW8       30.03
SEARCY         CLOUDY    55  50  82 N6        30.08R
HOT SPRINGS    FAIR      56  49  77 CALM      30.08R
RUSSELLVILLE   FAIR      54  49  83 NW9       30.08R
$$

ARZ036-031400-
EAST ARKANSAS

CITY           SKY/WX    TMP DP  RH WIND       PRES   REMARKS
WEST MEMPHIS   FAIR      58  54  86 N6        30.02R
$$

ARZ050-053-066-070-073-031400-
SOUTHWEST ARKANSAS

CITY           SKY/WX    TMP DP  RH WIND       PRES   REMARKS
ARKADELPHIA    PTSUNNY   57  55  93 NW5       30.08R
CAMDEN         FAIR      57  52  82 N5        30.06R
TEXARKANA      FAIR      54  48  80 N8        30.08R
EL DORADO      CLOUDY    55  53  93 N8        30.06R
DE QUEEN       FAIR      50  48  93 CALM      30.08R
$$

ARZ056-057-069-031400-
SOUTHEAST ARKANSAS

CITY           SKY/WX    TMP DP  RH WIND       PRES   REMARKS
PINE BLUFF     CLOUDY    57  51  80 N7        30.05R
STUTTGART      CLOUDY    55  48  76 N12       30.05R
MONTICELLO     PTSUNNY   59  53  80 VRB5      30.04R

$$






USA.gov is the U.S. government's official web portal to all federal, state and local government web resources and services.